Location: Campillo
(40.8621°N, 4.2488°W)
Time: 13:15:15
(UTC+00:00)

Cosmos 1707 Rocket - Pass Details

Date: 11 May 2021
Orbit: 605 x 631 km, 82.5° (Epoch: 14 June)

Event Time Altitude Azimuth Distance (km) Brightness Sun altitude
Exits shadow 22:33:00 44° 33° (NNE) 854 4.4 -26.6°
Drops below altitude 10° 22:36:10 10° 14° (NNE) 1,992 6.8 -26.8°
Sets 22:38:25 0° 11° (NNE) 2,907 7.8 -27.0°
